Alpena, MI

8:08 AM EST on February 14, 2016 (GMT -0500)
Alpena County Regional

Weather History for KAPN - November, 2011

Change the Weather History Date:

Tuesday, November 15, 2011

  Actual Average Record
Temperature  
Mean Temperature 45 °F 36 °F  
Max Temperature 54 °F 43 °F 65 °F (2001)
Min Temperature 36 °F 29 °F -6 °F (1933)
Degree Days  
Heating Degree Days 20 29  
Month to date heating degree days 324 400  
Since 1 July heating degree days 1113 1344  
Moisture  
Dew Point 33 °F    
Average Humidity 62    
Maximum Humidity 89    
Minimum Humidity 35    
Precipitation  
Precipitation 0.00 in 0.07 in 1.06 in (1927)
Month to date precipitation 1.61 1.06  
Year to date precipitation 34.94 25.37  
Snow  
Snow 0.00 in 0.20 in 3.00 in (1973)
Month to date snowfall 0.1 2.4  
Since 1 July snowfall 0.1 2.8  
Snow Depth 0.00 in    
Sea Level Pressure  
Sea Level Pressure 29.70 in    
Wind  
Wind Speed 6 mph (SSW)    
Max Wind Speed 10 mph    
Max Gust Speed 14 mph    
Visibility 10 miles    
Events      
T = Trace of Precipitation, MM = Missing Value Source: NWS Daily Summary

Daily Weather History Graph

Daily Weather History Graph

Search for Another Location

Airport or City:

Trip Planner

Search our weather history database for the weather conditions in past years. The results will help you decide how hot, cold, wet, or windy it might be!

Date:

Astronomy

Nov. 15, 2011 Rise Set
Actual Time 7:31 AM EST 5:05 PM EST
Civil Twilight 6:59 AM EST 5:37 PM EST
Nautical Twilight 6:24 AM EST 6:12 PM EST
Astronomical Twilight 5:49 AM EST 6:47 PM EST
Moon 9:12 PM EST (11/15) 11:32 AM EST (11/15)
Length of Visible Light 10h 37m
Length of Day
9h 33m
Waning Gibbous, 79% of the Moon is Illuminated
Nov 15
Waning Gibbous
Nov 18
Last Quarter
Nov 25
New
Dec 2
First Quarter
Dec 10
Full

Hourly Weather History & Observations

Time (EST) Temp. Windchill Dew Point Humidity Pressure Visibility Wind Dir Wind Speed Gust Speed Precip Events Conditions
12:54 AM 41.0 °F 35.8 °F 34.0 °F 76% 29.62 in 10.0 mi SW 8.1 mph - N/A   Partly Cloudy
1:54 AM 41.0 °F 35.8 °F 33.1 °F 73% 29.62 in 10.0 mi SW 8.1 mph - N/A   Clear
2:54 AM 42.1 °F 37.7 °F 35.1 °F 76% 29.63 in 10.0 mi SW 6.9 mph - N/A   Clear
3:54 AM 41.0 °F 35.8 °F 35.1 °F 79% 29.67 in 10.0 mi WSW 8.1 mph - N/A   Clear
4:54 AM 39.9 °F 35.1 °F 34.0 °F 79% 29.69 in 10.0 mi WSW 6.9 mph - N/A   Clear
5:54 AM 39.0 °F 34.8 °F 34.0 °F 82% 29.70 in 10.0 mi SW 5.8 mph - N/A   Clear
6:54 AM 37.0 °F 33.3 °F 33.1 °F 86% 29.72 in 10.0 mi SW 4.6 mph - N/A   Clear
7:54 AM 35.6 °F 31.7 °F 32.0 °F 87% 29.72 in 10.0 mi SW 4.6 mph - N/A   Clear
8:54 AM 39.0 °F - 34.0 °F 82% 29.77 in 10.0 mi Calm Calm - N/A   Clear
9:54 AM 43.0 °F 39.5 °F 33.1 °F 68% 29.77 in 10.0 mi SSW 5.8 mph - N/A   Clear
10:54 AM 46.9 °F - 33.1 °F 59% 29.77 in 10.0 mi South 5.8 mph - N/A   Clear
11:54 AM 48.9 °F - 32.0 °F 52% 29.75 in 10.0 mi South 6.9 mph - N/A   Partly Cloudy
12:54 PM 52.0 °F - 28.9 °F 41% 29.72 in 10.0 mi Variable 3.5 mph - N/A   Scattered Clouds
1:54 PM 53.1 °F - 26.1 °F 35% 29.72 in 10.0 mi Calm Calm - N/A   Mostly Cloudy
2:54 PM 52.0 °F - 36.0 °F 54% 29.70 in 10.0 mi East 5.8 mph - N/A   Scattered Clouds
3:54 PM 50.0 °F - 32.0 °F 50% 29.70 in 10.0 mi SE 4.6 mph - N/A   Mostly Cloudy
4:54 PM 46.9 °F - 30.9 °F 54% 29.70 in 10.0 mi South 5.8 mph - N/A   Overcast
5:54 PM 43.0 °F 38.2 °F 30.9 °F 62% 29.69 in 10.0 mi South 8.1 mph - N/A   Clear
6:54 PM 39.9 °F 33.9 °F 30.9 °F 70% 29.69 in 10.0 mi South 9.2 mph - N/A   Clear
7:54 PM 43.0 °F 41.3 °F 30.9 °F 62% 29.70 in 10.0 mi SSW 3.5 mph - N/A   Clear
8:54 PM 43.0 °F 39.5 °F 30.9 °F 62% 29.69 in 10.0 mi SSW 5.8 mph - N/A   Clear
9:54 PM 45.0 °F 41.2 °F 34.0 °F 65% 29.70 in 10.0 mi SW 6.9 mph - N/A   Clear
10:54 PM 45.0 °F 41.2 °F 35.1 °F 68% 29.69 in 10.0 mi SW 6.9 mph - N/A   Clear
11:54 PM 44.1 °F 41.5 °F 35.1 °F 71% 29.69 in 10.0 mi SW 4.6 mph - N/A   Clear